Weather History for Fort Drum, NY

Change the Weather History Date:

Friday, October 5, 2012

  Actual Average Record
Temperature  
Mean Temperature 60 °F -  
Max Temperature 66 °F 59 °F 81 °F (2007)
Min Temperature 55 °F 40 °F 26 °F (1996)
Degree Days  
Heating Degree Days 4    
Growing Degree Days 10 (Base 50)    
Moisture  
Dew Point 57 °F    
Average Humidity 86    
Maximum Humidity 97    
Minimum Humidity 68    
Precipitation  
Precipitation 0.04 in - - ()
Sea Level Pressure  
Sea Level Pressure 29.93 in    
Wind  
Wind Speed 8 mph (SW)    
Max Wind Speed 14 mph    
Max Gust Speed 24 mph    
Visibility 10 miles    
Events Rain    
Averages and records for this station are not official NWS values.
T = Trace of Precipitation, MM = Missing Value Source: NWS Daily Summary

Daily Weather History Graph

Daily Weather History Graph

Search for Another Location

Airport:

Trip Planner

Search our weather history database for the weather conditions in past years. The results will help you decide how hot, cold, wet, or windy it might be!

Date:

Astronomy

Oct. 05, 2012 Rise Set
Actual Time 7:05 AM EDT 6:35 PM EDT
Civil Twilight 6:37 AM EDT 7:04 PM EDT
Nautical Twilight 6:03 AM EDT 7:37 PM EDT
Astronomical Twilight 5:29 AM EDT 8:11 PM EDT
Moon 9:47 PM EDT (10/5) 12:21 PM EDT (10/5)
Length of Visible Light 12h 27m
Length of Day
11h 29m
Waning Gibbous, 74% of the Moon is Illuminated
Oct 5
Waning Gibbous
Oct 8
Last Quarter
Oct 15
New
Oct 21
First Quarter
Oct 29
Full

Hourly Weather History & Observations

Time (EDT) Temp. Dew Point Humidity Pressure Visibility Wind Dir Wind Speed Gust Speed Precip Events Conditions
12:55 AM 61.3 °F 54.9 °F 79% 30.01 in 10.0 mi WSW 6.9 mph - N/A   Clear
1:55 AM 59.9 °F 55.6 °F 86% 30.01 in 10.0 mi SW 5.8 mph - N/A   Clear
2:55 AM 59.7 °F 55.0 °F 84% 30.01 in 10.0 mi SW 6.9 mph - N/A   Clear
3:55 AM 59.5 °F 54.9 °F 84% 30.00 in 10.0 mi SW 6.9 mph - N/A   Clear
4:55 AM 55.2 °F 53.2 °F 93% 29.99 in 10.0 mi South 6.9 mph - N/A   Clear
5:55 AM 55.2 °F 53.2 °F 93% 29.99 in 10.0 mi South 6.9 mph - N/A   Clear
6:55 AM 55.4 °F 52.9 °F 91% 29.98 in 10.0 mi SSE 9.2 mph - N/A   Scattered Clouds
7:55 AM 56.3 °F 53.1 °F 89% 29.97 in 10.0 mi SSE 9.2 mph - N/A   Partly Cloudy
8:55 AM 62.1 °F 53.2 °F 73% 29.97 in 10.0 mi SW 9.2 mph - N/A   Scattered Clouds
9:11 AM 64.4 °F 53.6 °F 68% 29.98 in 10.0 mi SW 10.4 mph 20.7 mph N/A   Light Drizzle
9:55 AM 59.4 °F 56.5 °F 90% 29.99 in 8.0 mi SSW 11.5 mph - 0.04 in Rain Light Rain
10:04 AM 59.0 °F 57.2 °F 94% 29.99 in 10.0 mi SSW 10.4 mph - N/A   Overcast
10:30 AM 60.8 °F 57.2 °F 88% 29.99 in 10.0 mi SW 10.4 mph - N/A   Light Drizzle
10:38 AM 60.8 °F 57.2 °F 88% 29.98 in 10.0 mi SSW 13.8 mph 19.6 mph N/A   Mostly Cloudy
10:47 AM 60.8 °F 59.0 °F 94% 29.98 in 10.0 mi SSW 11.5 mph 19.6 mph N/A Rain Light Rain
10:55 AM 60.4 °F 58.6 °F 94% 29.98 in 10.0 mi SSW 10.4 mph - 0.00 in Rain Light Rain
11:03 AM 60.8 °F 59.0 °F 94% 29.98 in 10.0 mi SW 6.9 mph - N/A   Mostly Cloudy
11:55 AM 63.9 °F 60.1 °F 87% 29.96 in 10.0 mi SSW 9.2 mph - 0.00 in   Scattered Clouds
12:47 PM 66.2 °F 59.0 °F 78% 29.95 in 10.0 mi WSW 10.4 mph 17.3 mph N/A   Mostly Cloudy
12:55 PM 65.8 °F 59.4 °F 80% 29.95 in 10.0 mi SW 8.1 mph 17.3 mph N/A   Mostly Cloudy
1:55 PM 66.0 °F 57.9 °F 75% 29.93 in 10.0 mi WSW 8.1 mph - N/A   Overcast
2:55 PM 65.8 °F 58.6 °F 78% 29.92 in 10.0 mi WSW 10.4 mph - N/A   Overcast
3:16 PM 66.2 °F 59.0 °F 78% 29.92 in 10.0 mi West 10.4 mph - N/A   Light Drizzle
3:25 PM 66.2 °F 60.8 °F 83% 29.92 in 10.0 mi WSW 9.2 mph - N/A   Overcast
3:43 PM 66.2 °F 60.8 °F 83% 29.91 in 10.0 mi West 5.8 mph - N/A   Mostly Cloudy
3:46 PM 66.2 °F 60.8 °F 83% 29.91 in 10.0 mi West 9.2 mph - N/A   Mostly Cloudy
3:55 PM 66.0 °F 60.8 °F 83% 29.91 in 10.0 mi WSW 11.5 mph - 0.00 in   Mostly Cloudy
4:01 PM 66.2 °F 60.8 °F 83% 29.91 in 10.0 mi WSW 13.8 mph 20.7 mph N/A   Scattered Clouds
4:55 PM 65.3 °F 60.1 °F 83% 29.91 in 10.0 mi WSW 12.7 mph 24.2 mph N/A   Scattered Clouds
5:08 PM 64.4 °F 60.8 °F 88% 29.91 in 10.0 mi West 9.2 mph 18.4 mph N/A   Mostly Cloudy
5:16 PM 64.4 °F 60.8 °F 88% 29.91 in 10.0 mi WSW 8.1 mph - N/A   Mostly Cloudy
5:38 PM 62.6 °F 59.0 °F 88% 29.92 in 10.0 mi West 9.2 mph - N/A   Overcast
5:55 PM 62.4 °F 58.6 °F 87% 29.91 in 10.0 mi WSW 8.1 mph - N/A   Scattered Clouds
6:27 PM 60.8 °F 57.2 °F 88% 29.91 in 10.0 mi SW 5.8 mph - N/A   Mostly Cloudy
6:31 PM 60.8 °F 57.2 °F 88% 29.91 in 10.0 mi SW 8.1 mph - N/A   Mostly Cloudy
6:37 PM 60.8 °F 57.2 °F 88% 29.91 in 10.0 mi SW 6.9 mph - N/A   Mostly Cloudy
6:55 PM 61.0 °F 56.5 °F 85% 29.91 in 10.0 mi SW 6.9 mph - N/A   Mostly Cloudy
7:09 PM 60.8 °F 55.4 °F 82% 29.91 in 10.0 mi SW 6.9 mph - N/A   Scattered Clouds
7:55 PM 60.1 °F 55.9 °F 86% 29.91 in 10.0 mi SSW 8.1 mph - N/A   Mostly Cloudy
8:55 PM 60.1 °F 54.3 °F 81% 29.90 in 10.0 mi SSW 6.9 mph - N/A   Mostly Cloudy
9:16 PM 60.8 °F 53.6 °F 77% 29.90 in 10.0 mi SW 5.8 mph - N/A   Light Drizzle
9:31 PM 59.0 °F 53.6 °F 82% 29.90 in 10.0 mi SW 5.8 mph - N/A   Overcast
9:46 PM 59.0 °F 53.6 °F 82% 29.90 in 10.0 mi SW 8.1 mph - N/A   Light Drizzle
9:55 PM 59.2 °F 53.8 °F 82% 29.90 in 10.0 mi SW 5.8 mph - 0.00 in   Light Drizzle
10:26 PM 57.2 °F 55.4 °F 94% 29.90 in 10.0 mi SW 6.9 mph - N/A   Overcast
10:55 PM 57.9 °F 55.0 °F 90% 29.88 in 10.0 mi SSW 4.6 mph - 0.00 in   Overcast
10:58 PM 57.2 °F 55.4 °F 94% 29.88 in 10.0 mi SSW 4.6 mph - N/A Rain Light Rain
11:14 PM 57.2 °F 55.4 °F 94% 29.88 in 10.0 mi Calm Calm - N/A   Overcast
11:32 PM 57.2 °F 55.4 °F 94% 29.89 in 10.0 mi West 3.5 mph - N/A   Light Drizzle
11:46 PM 57.2 °F 55.4 °F 94% 29.88 in 10.0 mi SW 3.5 mph - N/A   Light Drizzle
11:55 PM 56.7 °F 55.9 °F 97% 29.88 in 10.0 mi SSW 3.5 mph - 0.00 in   Overcast
11:57 PM 57.2 °F 55.4 °F 94% 29.88 in 10.0 mi SSW 3.5 mph - N/A   Overcast
11:58 PM 57.2 °F 55.4 °F 94% 29.88 in 10.0 mi SSW 3.5 mph - N/A   Overcast